This is the latest recevied weather packets stored in our database for station/object K9NZF-1. If no packets are shown the sender has not sent any weather packets the latest 10 day(s).
| Time | Temp. | Humidity | Pressure | Rain* | Wind** | Luminosity | Snow |
|---|---|---|---|---|---|---|---|
| 1778165498 | 9.44° C | 58% | 1015.1 hPa | 0 mm | - | 765 W/m² | - |
| 1778165437 | 9.44° C | 58% | 1015 hPa | 0 mm | - | 765 W/m² | - |
| 1778165382 | 9.44° C | 58% | 1015 hPa | 0 mm | - | 761 W/m² | - |
| 1778165318 | 9.44° C | 60% | 1015.1 hPa | 0 mm | - | 759 W/m² | - |
| 1778165257 | 9.44° C | 59% | 1015.1 hPa | 0 mm | - | 754 W/m² | - |
| 1778165199 | 9.44° C | 59% | 1015.1 hPa | 0 mm | - | 749 W/m² | - |
| 1778165138 | 9.44° C | 59% | 1015 hPa | 0 mm | - | 749 W/m² | - |
| 1778165079 | 9.44° C | 59% | 1015.1 hPa | 0 mm | - | 747 W/m² | - |
| 1778165019 | 9.44° C | 58% | 1015 hPa | 0 mm | - | 744 W/m² | - |
| 1778164958 | 9.44° C | 59% | 1015.1 hPa | 0 mm | - | 744 W/m² | - |
| 1778164899 | 9.44° C | 61% | 1015 hPa | 0 mm | - | 740 W/m² | - |
| 1778164837 | 9.44° C | 59% | 1015 hPa | 0 mm | - | 737 W/m² | - |
| 1778164777 | 9.44° C | 60% | 1015 hPa | 0 mm | - | 735 W/m² | - |
| 1778164717 | 9.44° C | 60% | 1015 hPa | 0 mm | - | 733 W/m² | - |
| 1778164657 | 9.44° C | 61% | 1015 hPa | 0 mm | - | 731 W/m² | - |
| 1778164599 | 9.44° C | 62% | 1015 hPa | 0 mm | - | 728 W/m² | - |
| 1778164537 | 9.44° C | 59% | 1015.1 hPa | 0 mm | - | 724 W/m² | - |
| 1778164478 | 9.44° C | 61% | 1015.1 hPa | 0 mm | - | 721 W/m² | - |
| 1778164417 | 9.44° C | 64% | 1015.1 hPa | 0 mm | - | 719 W/m² | - |
| 1778164357 | 9.44° C | 65% | 1015.1 hPa | 0 mm | - | 717 W/m² | - |
| 1778164297 | 8.89° C | 65% | 1015.1 hPa | 0 mm | - | 717 W/m² | - |
| 1778164238 | 8.89° C | 63% | 1015.1 hPa | 0 mm | - | 710 W/m² | - |
| 1778164177 | 8.89° C | 62% | 1015.1 hPa | 0 mm | - | 708 W/m² | - |
| 1778164117 | 8.89° C | 63% | 1015.1 hPa | 0 mm | - | 700 W/m² | - |
| 1778164059 | 8.89° C | 63% | 1015.1 hPa | 0 mm | - | 700 W/m² | - |
* Rain latest hour (hover to see other rain measurements)
** Current wind speed in m/s (hover to see current wind gust speed)